Powrót do katalogu

STARLINK-36578

AktywnyŁącznośćSSO
NORAD 67571·PAYLOAD·🇺🇸 United States

Wystrzelony Jan 25, 2026 z Vandenberg Space Force Base

Loading…

Następne Przeloty (najbliższe 24 godziny)

TLE

ŚwieżeSource: CelesTrak SupGP

Epoka: Sep 15, 2026, 03:57 UTC

1 67571C 26016L   26258.16506944 -.00011486  00000+0 -35651-3 0  2581
2 67571  97.2851 316.8434 0001027  85.7539 105.0360 15.33449526    14

Śledź STARLINK-36578 w czasie rzeczywistym z AllMySat

Download on the App Store